• In Latvia
  • List of Countries
  • For 7 days
  • Water Temperature
  • Satellite Maps
  • Weather Map
  • Weather Widgets
  • user-avatar
    Login

    Hourly Weather Río Gallegos

    Today, 30 April, Sunday

    Time Temperature Precipitation Wind Pressure Humidity
    00:00 +5°C° 0 mm 2 mps 752 mmHg 76%
    01:00 +5°C° 0 mm 2 mps 752 mmHg 76%
    02:00 +5°C° 0 mm 2 mps 752 mmHg 75%
    03:00 +6°C° 0 mm 1 mps 752 mmHg 73%
    04:00 +6°C° 0 mm 1 mps 752 mmHg 72%
    05:00 +6°C° 0 mm 2 mps 752 mmHg 73%
    06:00 +5°C° 0 mm 3 mps 752 mmHg 73%
    07:00 +5°C° 0 mm 4 mps 752 mmHg 73%
    08:00 +6°C° 0 mm 5 mps 752 mmHg 72%
    09:00 +6°C° 0 mm 7 mps 752 mmHg 71%
    10:00 +7°C° 0 mm 8 mps 751 mmHg 70%
    11:00 +7°C° 0 mm 8 mps 751 mmHg 73%
    12:00 +9°C° 0 mm 8 mps 751 mmHg 76%
    13:00 +9°C° 0 mm 8 mps 750 mmHg 79%
    14:00 +9°C° 0.1 mm 8 mps 750 mmHg 83%
    15:00 +7°C° 0.1 mm 8 mps 750 mmHg 87%
    16:00 +8°C° 0.1 mm 7 mps 749 mmHg 91%
    17:00 +8°C° 0.1 mm 7 mps 749 mmHg 92%
    18:00 +8°C° 0.1 mm 7 mps 748 mmHg 94%
    19:00 +8°C° 0.1 mm 6 mps 748 mmHg 95%
    20:00 +8°C° 0 mm 5 mps 747 mmHg 95%
    21:00 +8°C° 0 mm 4 mps 747 mmHg 96%
    22:00 +9°C° 0 mm 3 mps 747 mmHg 97%
    23:00 +9°C° 0 mm 3 mps 746 mmHg 96%

    Tomorrow, 1 May, Monday

    Time Temperature Precipitation Wind Pressure Humidity
    00:00 +8°C° 0 mm 2 mps 746 mmHg 96%
    01:00 +8°C° 0 mm 2 mps 745 mmHg 96%
    02:00 +8°C° 0 mm 2 mps 745 mmHg 95%
    03:00 +8°C° 0 mm 2 mps 744 mmHg 94%
    04:00 +9°C° 0 mm 2 mps 744 mmHg 93%
    05:00 +10°C° 0.2 mm 1 mps 744 mmHg 93%
    06:00 +10°C° 0.2 mm 1 mps 744 mmHg 93%
    07:00 +10°C° 0.2 mm 1 mps 743 mmHg 93%
    08:00 +10°C° 0.4 mm 1 mps 743 mmHg 92%
    09:00 +9°C° 0.4 mm 2 mps 743 mmHg 92%
    10:00 +9°C° 0.4 mm 2 mps 743 mmHg 92%
    11:00 +9°C° 0 mm 2 mps 742 mmHg 91%
    12:00 +11°C° 0 mm 1 mps 742 mmHg 91%
    13:00 +11°C° 0 mm 1 mps 741 mmHg 90%
    14:00 +11°C° 0.1 mm 1 mps 741 mmHg 91%
    15:00 +11°C° 0.1 mm 1 mps 740 mmHg 92%
    16:00 +10°C° 0.1 mm 1 mps 740 mmHg 93%
    17:00 +9°C° 0.5 mm 2 mps 739 mmHg 94%
    18:00 +9°C° 0.5 mm 2 mps 739 mmHg 94%
    19:00 +9°C° 0.5 mm 3 mps 739 mmHg 94%
    20:00 +9°C° 0.3 mm 3 mps 739 mmHg 94%
    21:00 +8°C° 0.3 mm 4 mps 739 mmHg 94%
    22:00 +7°C° 0.3 mm 5 mps 738 mmHg 93%
    23:00 +7°C° 0 mm 5 mps 739 mmHg 93%

    Day after tomorrow, 2 May, Tuesday

    Time Temperature Precipitation Wind Pressure Humidity
    00:00 +7°C° 0 mm 5 mps 739 mmHg 92%
    01:00 +7°C° 0 mm 5 mps 739 mmHg 92%
    02:00 +6°C° 0.1 mm 5 mps 739 mmHg 90%
    03:00 +6°C° 0.1 mm 5 mps 740 mmHg 89%
    04:00 +5°C° 0.1 mm 6 mps 740 mmHg 88%
    05:00 +5°C° 0.2 mm 5 mps 740 mmHg 87%
    06:00 +5°C° 0.2 mm 5 mps 741 mmHg 86%
    07:00 +5°C° 0.2 mm 5 mps 741 mmHg 84%
    08:00 +5°C° 0 mm 5 mps 741 mmHg 81%
    09:00 +6°C° 0 mm 5 mps 742 mmHg 77%
    10:00 +5°C° 0 mm 6 mps 742 mmHg 74%
    11:00 +7°C° 0.1 mm 6 mps 742 mmHg 70%
    12:00 +6°C° 0.1 mm 7 mps 742 mmHg 67%
    13:00 +8°C° 0.1 mm 7 mps 742 mmHg 64%
    14:00 +6°C° 0.1 mm 8 mps 743 mmHg 63%
    15:00 +6°C° 0.1 mm 9 mps 743 mmHg 62%
    16:00 +6°C° 0.1 mm 9 mps 743 mmHg 62%
    17:00 +4°C° 0 mm 11 mps 745 mmHg 63%
    18:00 +4°C° 0 mm 12 mps 746 mmHg 64%
    19:00 +3°C° 0 mm 14 mps 747 mmHg 64%
    20:00 +3°C° 0 mm 13 mps 748 mmHg 66%
    21:00 +2°C° 0 mm 12 mps 749 mmHg 67%
    22:00 +2°C° 0 mm 11 mps 750 mmHg 68%
    23:00 +2°C° 0 mm 10 mps 750 mmHg 70%

    3 May, Wednesday

    Time Temperature Precipitation Wind Pressure Humidity
    00:00 +2°C° 0 mm 9 mps 750 mmHg 72%
    01:00 +2°C° 0 mm 8 mps 751 mmHg 74%
    02:00 +2°C° 0 mm 8 mps 751 mmHg 72%
    03:00 +1°C° 0 mm 8 mps 750 mmHg 71%
    04:00 +2°C° 0 mm 7 mps 750 mmHg 70%
    05:00 +2°C° 0 mm 7 mps 750 mmHg 69%
    06:00 +2°C° 0 mm 6 mps 750 mmHg 69%
    07:00 +2°C° 0 mm 5 mps 750 mmHg 68%
    08:00 +3°C° 0.1 mm 6 mps 749 mmHg 67%
    09:00 +4°C° 0.1 mm 7 mps 748 mmHg 66%
    10:00 +5°C° 0.1 mm 8 mps 747 mmHg 66%
    11:00 +5°C° 1.6 mm 9 mps 745 mmHg 72%
    12:00 +3°C° 1.6 mm 10 mps 743 mmHg 78%
    13:00 +3°C° 1.6 mm 11 mps 740 mmHg 84%
    14:00 +4°C° 1.3 mm 11 mps 738 mmHg 82%
    15:00 +6°C° 1.3 mm 11 mps 735 mmHg 81%
    16:00 +7°C° 1.3 mm 12 mps 733 mmHg 80%
    17:00 +7°C° 0.3 mm 11 mps 731 mmHg 78%
    18:00 +8°C° 0.3 mm 9 mps 730 mmHg 76%
    19:00 +9°C° 0.3 mm 8 mps 729 mmHg 74%
    20:00 +9°C° 0.1 mm 8 mps 728 mmHg 76%
    21:00 +8°C° 0.1 mm 7 mps 728 mmHg 79%
    22:00 +8°C° 0.1 mm 6 mps 727 mmHg 81%
    23:00 +6°C° 0.1 mm 7 mps 728 mmHg 83%

    4 May, Thursday

    Time Temperature Precipitation Wind Pressure Humidity
    00:00 +5°C° 0.1 mm 8 mps 729 mmHg 84%
    01:00 +3°C° 0.1 mm 10 mps 730 mmHg 86%
    02:00 +3°C° 0.1 mm 11 mps 731 mmHg 84%
    03:00 +3°C° 0.1 mm 11 mps 733 mmHg 82%
    04:00 +3°C° 0.1 mm 12 mps 735 mmHg 79%
    05:00 +3°C° 0.1 mm 12 mps 737 mmHg 77%
    06:00 +3°C° 0.1 mm 12 mps 739 mmHg 76%
    07:00 +3°C° 0.1 mm 12 mps 741 mmHg 74%
    08:00 +3°C° 0 mm 11 mps 742 mmHg 71%
    09:00 +3°C° 0 mm 11 mps 744 mmHg 69%
    10:00 +3°C° 0 mm 10 mps 746 mmHg 66%
    11:00 +3°C° 0 mm 10 mps 746 mmHg 64%
    12:00 +5°C° 0 mm 9 mps 747 mmHg 61%
    13:00 +5°C° 0 mm 8 mps 748 mmHg 59%
    14:00 +4°C° 0 mm 7 mps 749 mmHg 62%
    15:00 +5°C° 0 mm 5 mps 750 mmHg 65%
    16:00 +4°C° 0 mm 4 mps 751 mmHg 68%
    17:00 +4°C° 0 mm 3 mps 751 mmHg 70%
    18:00 +3°C° 0 mm 3 mps 752 mmHg 71%
    19:00 +4°C° 0 mm 2 mps 752 mmHg 73%
    20:00 +3°C° 0 mm 2 mps 753 mmHg 74%
    21:00 +3°C° 0 mm 2 mps 753 mmHg 74%
    22:00 +3°C° 0 mm 2 mps 753 mmHg 75%
    23:00 +2°C° 0 mm 3 mps 753 mmHg 75%

    5 May, Friday

    Time Temperature Precipitation Wind Pressure Humidity
    00:00 +2°C° 0 mm 3 mps 752 mmHg 75%
    01:00 +1°C° 0 mm 4 mps 752 mmHg 75%
    02:00 +2°C° 0 mm 5 mps 751 mmHg 76%
    03:00 +2°C° 0 mm 6 mps 751 mmHg 77%
    04:00 +2°C° 0 mm 7 mps 750 mmHg 78%
    05:00 +2°C° 0 mm 8 mps 749 mmHg 77%
    06:00 +3°C° 0 mm 9 mps 748 mmHg 76%
    07:00 +3°C° 0 mm 10 mps 747 mmHg 75%
    08:00 +4°C° 1.1 mm 11 mps 746 mmHg 79%
    09:00 +4°C° 1.1 mm 12 mps 744 mmHg 83%
    10:00 +4°C° 1.1 mm 13 mps 743 mmHg 87%
    11:00 +5°C° 2.1 mm 12 mps 742 mmHg 87%
    12:00 +5°C° 2.1 mm 12 mps 740 mmHg 88%
    13:00 +7°C° 2.1 mm 11 mps 739 mmHg 88%
    14:00 +7°C° 0.2 mm 9 mps 738 mmHg 87%
    15:00 +7°C° 0.2 mm 8 mps 737 mmHg 87%
    16:00 +8°C° 0.2 mm 6 mps 736 mmHg 86%
    17:00 +8°C° 0 mm 5 mps 736 mmHg 86%
    18:00 +7°C° 0 mm 4 mps 736 mmHg 86%
    19:00 +7°C° 0 mm 3 mps 735 mmHg 86%
    20:00 +7°C° 0 mm 3 mps 735 mmHg 85%
    21:00 +7°C° 0 mm 3 mps 735 mmHg 85%
    22:00 +7°C° 0 mm 3 mps 735 mmHg 84%
    23:00 +6°C° 0 mm 4 mps 735 mmHg 83%
    Show more